Location: *
(0.3667°N, 29.9500°E)
Time: 07:31:55
(UTC+00:00)

Daily predictions for brighter satellites

Satellite Brightness Start Highest point End
(mag) Time Altitude Azimuth Time Altitude Azimuth Time Altitude Azimuth
ARIANE 5 R/B 3.4 15:06:38 10° W 15:10:38 73° S 15:39:49 10° E
ARIANE 5 R/B 4.4 16:15:49 10° WNW 16:20:01 69° N 16:50:08 11° E
ARIANE 5 R/B 4.4 16:15:49 10° WNW 16:20:01 69° N 16:50:07 11° E
ARIANE 5 R/B 4.4 16:15:49 10° WNW 16:20:02 69° N 16:50:04 11° E
ARIANE 5 R/B 4.4 16:15:49 10° WNW 16:20:02 69° N 16:50:08 11° E
ARIANE 5 R/B 4.4 16:15:49 10° WNW 16:20:02 69° N 16:50:07 11° E
USA 234 3.4 16:16:56 10° NE 16:23:21 60° SE 16:29:46 10° SSW
Cosmos 1470 2.9 16:20:25 10° S 16:24:16 77° W 16:28:07 10° N
YAOGAN 6 3.0 16:21:22 10° S 16:24:55 69° W 16:28:29 10° NNW
OAO 3 Rocket 3.3 16:22:40 10° NW 16:27:34 80° SW 16:32:24 10° SE
Cosmos 614 Rocket 4.3 16:25:04 10° S 16:30:02 45° ESE 16:35:00 10° NNE
Cosmos 1726 3.1 16:27:01 10° SSE 16:30:11 26° E 16:33:19 10° NE
Meteor 2-16 Rocket 4.4 16:25:56 10° N 16:32:03 79° E 16:38:11 10° S
NATO 3D Rocket 3.9 16:27:58 10° WNW 16:33:00 63° NNE 16:39:38 11° ESE
BLOCK DM-SL R/B 3.2 16:14:41 10° W 16:36:04 88° S 16:39:29 12° E
Meteor 1-24 Rocket 3.6 16:33:18 10° N 16:38:31 60° E 16:43:47 10° SSE
Cosmos 2315 Rocket 4.5 16:36:09 10° SSW 16:42:22 67° W 16:48:37 10° N
Skynet4D Del rocket 3.7 16:40:10 10° SW 16:45:59 61° SSE 16:50:41 13° ENE
Atlas Centaur 2 3.7 16:41:14 10° W 16:47:32 35° SW 16:52:40 10° SSE
Okean-O 3.0 16:44:31 10° S 16:48:55 67° WSW 16:53:18 10° NNW
Cosmos 1892 Rocket 4.2 16:44:34 10° NNW 16:48:57 61° W 16:53:19 10° S
Cosmos 1110 Rocket 4.0 16:44:15 10° NNW 16:49:24 83° W 16:54:34 10° S
Aureole 3 3.3 16:46:02 10° S 16:49:25 77° W 16:53:34 10° N
Cosmos 482 Debris 4.4 16:45:21 10° NNW 16:51:01 68° NE 16:53:48 15° SE
Cosmos 407 Rocket 3.4 16:45:52 10° S 16:51:02 64° ESE 16:56:09 10° NNE
CZ-2D R/B 3.5 16:47:42 10° SSE 16:51:22 45° E 16:55:00 10° N
Cosmos 2228 3.4 16:54:30 10° SSE 16:58:29 39° E 17:02:27 10° NNE
IUS-1 SRM-2 3.9 16:40:25 10° WSW 17:00:19 68° SSE 17:03:16 22° E
ASTRO E2 3.0 16:56:30 10° WSW 17:00:27 62° NNW 17:03:40 15° NE
ATLAS 5 CENTAUR R/B 4.2 17:02:52 10° WSW 17:05:54 20° WNW 17:08:52 10° NNW
STARLINK-1066 2.8 17:03:20 10° NW 17:06:28 85° WSW 17:07:51 30° SSE
STARLINK-1071 4.5 17:02:56 10° N 17:06:35 30° NE 17:07:17 29° ENE
STARLINK-1081 2.8 17:03:48 10° NW 17:06:54 83° WSW 17:08:14 31° SSE
STARLINK-1070 2.8 17:04:15 10° NW 17:07:20 82° WSW 17:08:39 31° SSE
STARLINK-1069 2.9 17:04:41 10° NW 17:07:48 80° WSW 17:09:09 31° SSE
Meteor 1-16 Rocket 4.0 17:02:57 10° S 17:08:16 90° E 17:13:37 10° N
STARLINK-1085 2.9 17:05:09 10° NW 17:08:16 79° SW 17:09:35 31° SSE
STARLINK-1086 2.9 17:05:36 10° NW 17:08:42 77° WSW 17:09:58 32° SSE
Cosmos 1606 Rocket 3.5 17:04:46 10° S 17:09:06 64° E 17:13:27 10° NNE
STARLINK-1095 2.9 17:06:03 10° NW 17:09:08 76° SW 17:10:24 32° SSE
STARLINK-1077 2.9 17:06:30 10° NW 17:09:36 74° SW 17:10:50 33° SSE
STARLINK-1075 3.0 17:06:58 10° NW 17:10:03 73° SW 17:11:16 33° SSE
STARLINK-1093 3.0 17:07:23 10° NW 17:10:30 72° SW 17:11:45 33° SSE
Cosmos 1709 Rocket 3.8 17:04:41 10° N 17:10:46 79° E 17:16:53 10° S
STARLINK-1074 3.0 17:07:51 10° NW 17:10:58 70° SW 17:12:11 33° SSE
STARLINK-1087 3.0 17:08:18 10° NW 17:11:24 68° SW 17:12:34 34° SSE
STARLINK-1110 4.2 17:07:46 10° N 17:11:33 35° NE 17:12:04 34° ENE
STARLINK-1088 3.1 17:08:45 10° NW 17:11:50 67° WSW 17:12:59 34° SSE
STARLINK-1115 3.1 17:09:12 10° NW 17:12:18 66° SW 17:13:29 33° SSE
STARLINK-1076 3.2 17:09:40 10° NW 17:12:45 65° SW 17:13:55 34° SSE
STARLINK-1092 3.2 17:10:06 10° NW 17:13:12 64° SW 17:14:20 34° SSE
STARLINK-1080 3.2 17:10:35 10° NW 17:13:38 62° SW 17:14:43 35° SSE
STARLINK-1090 3.2 17:11:02 10° NW 17:14:05 61° WSW 17:15:10 35° S
STARLINK-1089 3.3 17:11:29 10° NW 17:14:32 60° WSW 17:15:35 35° S
STARLINK-1107 3.3 17:11:56 10° NW 17:14:59 58° SW 17:16:01 35° S
Cosmos 1954 Rocket 4.2 17:10:03 10° S 17:15:06 46° ESE 17:20:07 10° NNE
USA 215 4.0 17:09:51 10° SSE 17:16:10 52° SW 17:22:28 10° NW
ATLAS 3B CENTAUR R/B 2.2 17:08:55 10° NW 17:16:16 45° NNE 17:17:33 35° ENE
STARLINK-1124 4.0 17:12:37 10° NNW 17:16:30 41° NE 17:16:50 40° ENE
Cosmos 1023 Rocket 4.4 17:11:28 10° SSW 17:16:44 89° E 17:21:56 10° NNE
STARLINK-1122 3.8 17:17:30 10° NNW 17:21:29 48° NE 17:21:38 47° ENE
STARLINK-43 3.1 17:18:33 10° SSW 17:22:14 77° SE 17:22:41 64° ENE
CSL-04 Debris 4.2 17:18:35 10° S 17:24:05 82° WSW 17:29:34 10° NNW
Cosmos 1302 Rocket 4.0 17:20:18 10° NNW 17:25:35 85° WSW 17:30:53 10° S
STARLINK-1126 3.7 17:22:25 10° NNW 17:26:26 56° NE 17:26:26 56° NE
Cosmos 1626 3.8 17:23:09 10° NNW 17:26:31 34° W 17:29:54 10° SSW
Cosmos 2297 4.0 17:23:57 10° NNW 17:29:37 69° WSW 17:35:19 10° S
STARLINK-1082 3.6 17:27:20 10° NNW 17:31:12 64° NE 17:31:12 64° NE
H-2A R/B 3.4 17:35:15 24° NNE 17:35:15 24° NNE 17:37:42 10° NNE
STARLINK-1100 3.6 17:32:15 10° NNW 17:35:59 68° N 17:35:59 68° N
GPS 2-12 Rocket1 3.6 17:34:53 10° W 17:39:33 53° NNW 17:40:17 48° NNE
STARLINK-1083 3.8 17:37:12 10° NNW 17:40:45 64° NNW 17:40:45 64° NNW
Spelda 4.2 17:38:22 10° WNW 17:41:25 56° N 17:42:13 50° NE
Sylda 4400 4.3 17:38:29 10° WSW 17:41:16 33° SW 17:41:16 33° SW
Cosmos 1943 Rocket 2.6 17:37:22 10° N 17:41:36 43° NE 17:41:36 43° NE
Meteor 1-21 Rocket 4.0 17:38:11 10° N 17:43:42 70° E 17:44:18 64° SE
STARLINK-1125 4.1 17:42:11 10° NW 17:45:32 57° NW 17:45:32 57° NW
CZ-4 R/B 4.4 17:47:07 10° SW 17:49:06 14° WSW 17:51:02 10° WNW
ARIANE 5 DEB (SYLDA) 4.4 17:47:24 10° WSW 17:48:40 27° SW 17:48:40 27° SW
ARIANE 5 R/B 3.9 17:45:24 10° WSW 17:50:01 73° S 17:56:01 40° E
STARLINK-1109 4.5 17:47:10 10° NW 17:50:17 48° WNW 17:50:17 48° WNW
Cosmos 2369 Rocket 3.6 17:46:51 10° N 17:49:08 23° NNE 17:49:08 23° NNE
Delta 2 Rocket 4.0 17:49:10 10° WNW 17:53:04 64° W 17:53:04 64° W
Ariane Rocket 4.0 17:56:30 35° N 17:56:30 35° N 17:59:23 10° N
ATLAS 5 CENTAUR R/B 4.5 18:06:21 10° NNW 18:11:35 22° NNE 18:14:18 20° NE
Centaur D AC-28 3.8 18:21:06 10° NW 18:22:30 25° NW 18:22:30 25° NW
